Hourly Data Report for September 10, 2020

WINNIPEG THE FORKS
MANITOBA
Current Station Operator: ECCC - MSC

49°53'18.008" N
97°07'46.007" W
230.00 m
5023262
71579
XWN

Download Data

Hourly Data (September 2020)
Hourly Data Report for September 10, 2020
TIME
LST
Temp Definition
°C
Dew Point Definition
°C
Rel Hum Definition
%
Precip. Amount Definition
mm

Wind Dir Definition
10's deg

Wind Spd Definition
km/h
Visibility Definition
km
Stn Press Definition
kPa
Hmdx Definition


Wind Chill Definition


Weather Definition


00:00 9.5 -1.6 46 0.0 20 11   99.60     LegendNANA
01:00 9.6 -1.2 47 0.0 20 9   99.58     LegendNANA
02:00 9.7 -0.5 49 0.0 20 7   99.53     LegendNANA
03:00 9.5 -0.2 51 0.0 20 7   99.51     LegendNANA
04:00 8.6 0.1 55 0.0 20 9   99.49     LegendNANA
05:00 7.7 0.5 60 0.0 21 10   99.51     LegendNANA
06:00 7.0 0.3 62 0.0 20 11   99.54     LegendNANA
07:00 7.0 0.6 64 0.0 20 11   99.59     LegendNANA
08:00 8.8 0.8 57 0.0 21 11   99.60     LegendNANA
09:00 12.0 2.8 54 0.0 22 8   99.62     LegendNANA
10:00 14.7 3.3 46 0.0 21 8   99.64     LegendNANA
11:00 17.5 4.4 42 0.0 20 5   99.62     LegendNANA
12:00 19.5 4.9 38 0.0 22 7   99.61     LegendNANA
13:00 21.5 4.8 34 0.0 21 7   99.58     LegendNANA
14:00 22.8 5.1 32 0.0 29 8   99.56     LegendNANA
15:00 22.8 6.1 34 0.0 31 8   99.55     LegendNANA
16:00 22.6 5.8 34 0.0 33 6   99.54     LegendNANA
17:00 21.9 5.7 35 0.0 36 6   99.54     LegendNANA
18:00 20.6 6.4 40 0.0 1 3   99.53     LegendNANA
19:00 18.6 7.2 47 0.0 1 1   99.53     LegendNANA
20:00 15.7 8.4 62 0.0 0 1   99.55     LegendNANA
21:00 14.5 9.1 70 0.0 0 1   99.52     LegendNANA
22:00 13.8 8.3 69 0.0 0 1   99.55     LegendNANA
23:00 12.9 7.6 70 0.0 0 1   99.51     LegendNANA

Notes on Data Quality.

Legend

  • E = Estimated
  • M = Missing
  • NA = Not Available*
  • [empty] = Indicates an unobserved value
Date modified: